NSS-11 (AAP-1)

Last updated on Nov. 19, 2019, 4:25 a.m. UTC

1 26554U 00059A   19322.54673682  .00000029  00000-0  00000+0 0  9994
2 26554   0.0578  95.3245 0002346 157.8983 176.9383  1.00271106 70088
UTC
Height (km)
Latitude
Longitude
Inclination
Orbital Period
UTC large
Height (km)
Speed (km/s)
/
Latitude / Longitude
Inclination (degrees)
Orbital Period (minutes)
Azimuth
Elevation
Range (km)
Doppler Factor
iOS Compass Heading
iOS Angle

Next 30 passes for location: Hong Kong

Rise time Rise Azimuth (degrees) Set time Set Azimuth (degrees) Duration Max altitude (degrees)

No matching passes for this satellites